Tracking 19484 objects as of 20-Jan-2019
HD Live streaming from Space Station
objects crossing your sky now

METEOSAT 2

Track METEOSAT 2 now!
METEOSAT 2 is classified as:


NORAD ID: 12544
Int'l Code: 1981-057A
Perigee: 36,079.7 km
Apogee: 36,386.4 km
Inclination: 14.5 °
Period: 1,458.6 minutes
Semi major axis: 42604 km
RCS: 4.5984 m2 (large)
Launch date: June 19, 1981
Source: European Space Agency (ESA)
Launch site: FRENCH GUIANA (FRGUI)
aabbcc
Your satellite tracking list
Your tracking list is empty




NASA's NSSDC Master Catalog

Two Line Element Set (TLE):
1 12544U 81057A   19019.53092419 -.00000081 +00000-0 +00000-0 0  9990
2 12544 014.4705 341.6986 0035996 314.9323 215.2354 00.98724970097131
Source of the keplerian elements: AFSPC